• Em Portugal
  • Lista de países
  • Para 7 dias
  • Temperatura da água
  • Mapas de satélite
  • Mapa do tempo
  • Widgets de tempo
  • user-avatar
    Iniciar Sessão

    Previsão horária em Trinidad

    Hoje, 20 Setembro, Quinta-feira

    Tempo Temperatura Precipitação Vento Pressão Humidade
    00:00 +30°C° 0 mm 1 m/s 742 mmHg 53%
    01:00 +30°C° 0 mm 2 m/s 742 mmHg 53%
    02:00 +30°C° 0 mm 1 m/s 742 mmHg 55%
    03:00 +30°C° 0 mm 1 m/s 742 mmHg 55%
    04:00 +30°C° 0 mm 1 m/s 742 mmHg 55%
    05:00 +29°C° 0 mm 1 m/s 742 mmHg 55%
    06:00 +31°C° 0 mm 2 m/s 743 mmHg 52%
    07:00 +33°C° 0 mm 3 m/s 743 mmHg 50%
    08:00 +34°C° 0 mm 3 m/s 744 mmHg 46%
    09:00 +36°C° 0 mm 3 m/s 744 mmHg 42%
    10:00 +38°C° 0 mm 3 m/s 744 mmHg 37%
    11:00 +41°C° 0 mm 4 m/s 744 mmHg 33%
    12:00 +41°C° 0 mm 4 m/s 743 mmHg 32%
    13:00 +40°C° 0 mm 3 m/s 743 mmHg 32%
    14:00 +40°C° 0 mm 3 m/s 742 mmHg 31%
    15:00 +40°C° 0 mm 3 m/s 741 mmHg 31%
    16:00 +40°C° 0 mm 3 m/s 741 mmHg 32%
    17:00 +39°C° 0 mm 2 m/s 741 mmHg 32%
    18:00 +38°C° 0 mm 2 m/s 741 mmHg 35%
    19:00 +36°C° 0 mm 2 m/s 741 mmHg 39%
    20:00 +34°C° 0 mm 1 m/s 741 mmHg 42%
    21:00 +33°C° 0 mm 1 m/s 742 mmHg 43%
    22:00 +32°C° 0 mm 1 m/s 742 mmHg 44%
    23:00 +32°C° 0 mm 1 m/s 742 mmHg 46%

    Amanhã, 21 Setembro, Sexta-feira

    Tempo Temperatura Precipitação Vento Pressão Humidade
    00:00 +31°C° 0 mm 1 m/s 742 mmHg 47%
    01:00 +31°C° 0 mm 1 m/s 742 mmHg 49%
    02:00 +30°C° 0 mm 1 m/s 741 mmHg 50%
    03:00 +30°C° 0 mm 1 m/s 741 mmHg 51%
    04:00 +30°C° 0 mm 1 m/s 742 mmHg 51%
    05:00 +30°C° 0 mm 1 m/s 742 mmHg 52%
    06:00 +31°C° 0 mm 2 m/s 742 mmHg 49%
    07:00 +32°C° 0 mm 2 m/s 743 mmHg 46%
    08:00 +34°C° 0 mm 3 m/s 744 mmHg 44%
    09:00 +36°C° 0 mm 3 m/s 744 mmHg 39%
    10:00 +39°C° 0 mm 3 m/s 744 mmHg 34%
    11:00 +42°C° 0 mm 3 m/s 744 mmHg 29%
    12:00 +43°C° 0 mm 3 m/s 743 mmHg 27%
    13:00 +43°C° 0 mm 3 m/s 742 mmHg 25%
    14:00 +44°C° 0 mm 3 m/s 741 mmHg 23%
    15:00 +44°C° 0 mm 3 m/s 740 mmHg 24%
    16:00 +43°C° 0 mm 3 m/s 740 mmHg 25%
    17:00 +42°C° 0 mm 3 m/s 740 mmHg 25%
    18:00 +40°C° 0 mm 2 m/s 740 mmHg 29%
    19:00 +38°C° 0 mm 2 m/s 740 mmHg 32%
    20:00 +36°C° 0 mm 2 m/s 741 mmHg 35%
    21:00 +35°C° 0 mm 2 m/s 741 mmHg 38%
    22:00 +34°C° 0 mm 2 m/s 741 mmHg 40%
    23:00 +32°C° 0 mm 1 m/s 742 mmHg 42%

    Depois de amanhã, 22 Setembro, Sábado

    Tempo Temperatura Precipitação Vento Pressão Humidade
    00:00 +32°C° 0 mm 1 m/s 741 mmHg 44%
    01:00 +31°C° 0 mm 1 m/s 741 mmHg 45%
    02:00 +31°C° 0 mm 1 m/s 741 mmHg 47%
    03:00 +30°C° 0 mm 1 m/s 741 mmHg 49%
    04:00 +30°C° 0 mm 1 m/s 741 mmHg 51%
    05:00 +29°C° 0 mm 1 m/s 741 mmHg 53%
    06:00 +31°C° 0 mm 1 m/s 742 mmHg 50%
    07:00 +32°C° 0 mm 2 m/s 743 mmHg 47%
    08:00 +34°C° 0 mm 2 m/s 743 mmHg 44%
    09:00 +36°C° 0 mm 2 m/s 743 mmHg 39%
    10:00 +39°C° 0 mm 3 m/s 744 mmHg 34%
    11:00 +42°C° 0 mm 3 m/s 744 mmHg 29%
    12:00 +42°C° 0 mm 3 m/s 743 mmHg 27%
    13:00 +43°C° 0 mm 3 m/s 742 mmHg 26%
    14:00 +44°C° 0 mm 3 m/s 740 mmHg 24%
    15:00 +43°C° 0 mm 3 m/s 740 mmHg 24%
    16:00 +43°C° 0 mm 3 m/s 739 mmHg 25%
    17:00 +42°C° 0 mm 3 m/s 739 mmHg 25%
    18:00 +39°C° 0 mm 3 m/s 739 mmHg 29%
    19:00 +38°C° 0 mm 2 m/s 739 mmHg 33%
    20:00 +36°C° 0 mm 2 m/s 739 mmHg 36%
    21:00 +35°C° 0 mm 2 m/s 740 mmHg 39%
    22:00 +34°C° 0 mm 2 m/s 740 mmHg 41%
    23:00 +34°C° 0 mm 2 m/s 740 mmHg 43%

    23 Setembro, Domingo

    Tempo Temperatura Precipitação Vento Pressão Humidade
    00:00 +32°C° 0 mm 2 m/s 740 mmHg 45%
    01:00 +31°C° 0 mm 1 m/s 740 mmHg 48%
    02:00 +31°C° 0 mm 1 m/s 740 mmHg 50%
    03:00 +30°C° 0.1 mm 1 m/s 740 mmHg 53%
    04:00 +29°C° 0.1 mm 1 m/s 740 mmHg 56%
    05:00 +29°C° 0.1 mm 1 m/s 740 mmHg 59%
    06:00 +30°C° 0.1 mm 2 m/s 741 mmHg 57%
    07:00 +31°C° 0.1 mm 2 m/s 742 mmHg 54%
    08:00 +33°C° 0.1 mm 3 m/s 743 mmHg 52%
    09:00 +36°C° 0 mm 3 m/s 743 mmHg 45%
    10:00 +38°C° 0 mm 3 m/s 743 mmHg 38%
    11:00 +40°C° 0 mm 3 m/s 743 mmHg 32%
    12:00 +42°C° 0 mm 3 m/s 742 mmHg 30%
    13:00 +43°C° 0 mm 3 m/s 741 mmHg 28%
    14:00 +43°C° 0 mm 3 m/s 740 mmHg 26%
    15:00 +43°C° 0 mm 3 m/s 739 mmHg 27%
    16:00 +43°C° 0 mm 3 m/s 739 mmHg 27%
    17:00 +42°C° 0 mm 3 m/s 739 mmHg 27%
    18:00 +39°C° 0 mm 2 m/s 739 mmHg 31%
    19:00 +37°C° 0 mm 2 m/s 739 mmHg 35%
    20:00 +36°C° 0 mm 2 m/s 740 mmHg 39%
    21:00 +35°C° 0 mm 2 m/s 740 mmHg 41%
    22:00 +34°C° 0 mm 2 m/s 740 mmHg 43%
    23:00 +33°C° 0 mm 1 m/s 741 mmHg 45%

    24 Setembro, Segunda-feira

    Tempo Temperatura Precipitação Vento Pressão Humidade
    00:00 +32°C° 0 mm 1 m/s 741 mmHg 46%
    01:00 +32°C° 0 mm 1 m/s 740 mmHg 47%
    02:00 +31°C° 0 mm 2 m/s 740 mmHg 48%
    03:00 +30°C° 0.3 mm 1 m/s 740 mmHg 54%
    04:00 +29°C° 0.3 mm 1 m/s 740 mmHg 60%
    05:00 +28°C° 0.3 mm 1 m/s 741 mmHg 65%
    06:00 +29°C° 0.2 mm 1 m/s 741 mmHg 63%
    07:00 +30°C° 0.2 mm 1 m/s 742 mmHg 60%
    08:00 +31°C° 0.2 mm 1 m/s 743 mmHg 57%
    09:00 +35°C° 0 mm 2 m/s 743 mmHg 48%
    10:00 +38°C° 0 mm 2 m/s 743 mmHg 38%
    11:00 +42°C° 0 mm 3 m/s 744 mmHg 29%
    12:00 +43°C° 0 mm 3 m/s 743 mmHg 27%
    13:00 +43°C° 0 mm 3 m/s 742 mmHg 26%
    14:00 +44°C° 0 mm 3 m/s 741 mmHg 24%
    15:00 +43°C° 0 mm 3 m/s 740 mmHg 24%
    16:00 +43°C° 0 mm 3 m/s 740 mmHg 25%
    17:00 +43°C° 0 mm 3 m/s 739 mmHg 25%
    18:00 +40°C° 0 mm 3 m/s 739 mmHg 28%
    19:00 +38°C° 0 mm 2 m/s 740 mmHg 32%
    20:00 +36°C° 0 mm 2 m/s 740 mmHg 36%
    21:00 +35°C° 0 mm 2 m/s 740 mmHg 38%
    22:00 +35°C° 0 mm 2 m/s 741 mmHg 40%
    23:00 +34°C° 0 mm 2 m/s 741 mmHg 42%

    25 Setembro, Terça-feira

    Tempo Temperatura Precipitação Vento Pressão Humidade
    00:00 +32°C° 0 mm 2 m/s 741 mmHg 44%
    01:00 +31°C° 0 mm 1 m/s 741 mmHg 47%
    02:00 +31°C° 0 mm 1 m/s 740 mmHg 49%
    03:00 +30°C° 0 mm 1 m/s 740 mmHg 51%
    04:00 +30°C° 0 mm 1 m/s 740 mmHg 53%
    05:00 +29°C° 0 mm 1 m/s 740 mmHg 55%
    06:00 +31°C° 0 mm 1 m/s 741 mmHg 52%
    07:00 +32°C° 0 mm 1 m/s 742 mmHg 48%
    08:00 +34°C° 0 mm 2 m/s 743 mmHg 44%
    09:00 +37°C° 0 mm 2 m/s 743 mmHg 39%
    10:00 +39°C° 0 mm 3 m/s 743 mmHg 33%
    11:00 +43°C° 0 mm 3 m/s 743 mmHg 27%
    12:00 +43°C° 0 mm 3 m/s 742 mmHg 25%
    13:00 +44°C° 0 mm 3 m/s 741 mmHg 23%
    14:00 +45°C° 0 mm 3 m/s 740 mmHg 21%
    15:00 +44°C° 0 mm 3 m/s 739 mmHg 21%
    16:00 +44°C° 0 mm 3 m/s 739 mmHg 22%
    17:00 +43°C° 0 mm 3 m/s 738 mmHg 22%
    18:00 +40°C° 0 mm 2 m/s 738 mmHg 26%
    19:00 +38°C° 0 mm 2 m/s 739 mmHg 30%
    20:00 +36°C° 0 mm 2 m/s 739 mmHg 33%
    21:00 +36°C° 0 mm 2 m/s 739 mmHg 35%
    22:00 +35°C° 0 mm 2 m/s 739 mmHg 37%
    23:00 +34°C° 0 mm 1 m/s 740 mmHg 39%
    Mostrar mais